Temp
-5 -5 -5 -5 -5 -4 -4 -5 -6 -7 -7 -7 -7 -7 -6 -6 -6 -6 -5 -5 -5 -5 -4 -4 -4 -4 -3 -3 -4 -4 -4 -5 -5 -6 -6 -6 -5 -6 -5 -5 -5 -5 -5 -4 -4 -5 -5 -5 -5
-4 -5 -5 -5 -4 -4 -4 -5 -6 -7 -7 -8 -7 -7 -7 -6 -6 -5 -5 -4 -4 -5 -4 -4 -4 -4 -3 -3 -4 -4 -4 -5 -5 -5 -6 -6 -6 -6 -6 -5 -5 -5 -5 -4 -4 -5 -5 -5 -5
-5 -5 -5 -4 -4 -4 -5 -5 -6 -7 -7 -7 -8 -7 -7 -7 -6 -6 -5 -5 -5 -4 -5 -4 -4 -4 -3 -3 -4 -4 -4 -5 -5 -5 -6 -6 -6 -6 -6 -6 -5 -5 -5 -5 -5 -5 -5 -5 -5
-5 -5 -5 -5 -4 -5 -5 -6 -6 -6 -7 -8 -7 -7 -7 -7 -6 -6 -5 -6 -5 -4 -3 -3 -3 -4 -3 -3 -3 -4 -5 -5 -5 -5 -5 -6 -6 -6 -6 -6 -5 -5 -5 -5 -5 -5 -5 -5 -5
-5 -5 -5 -5 -5 -5 -5 -6 -6 -7 -7 -7 -8 -7 -7 -7 -6 -6 -6 -6 -5 -4 -3 -3 -4 -4 -4 -4 -3 -4 -5 -5 -5 -6 -6 -6 -6 -6 -6 -6 -5 -5 -5 -5 -5 -5 -6 -5 -5
-5 -5 -5 -5 -5 -6 -6 -6 -6 -6 -7 -7 -7 -8 -6 -7 -7 -7 -6 -6 -5 -4 -4 -4 -5 -5 -4 -4 -4 -4 -4 -5 -5 -6 -6 -6 -6 -6 -6 -6 -5 -5 -5 -5 -5 -6 -5 -5 -6
-6 -6 -5 -6 -6 -6 -6 -7 -6 -6 -7 -8 -7 -8 -8 -7 -8 -7 -6 -5 -5 -5 -4 -4 -4 -4 -5 -4 -4 -4 -4 -5 -5 -5 -6 -6 -6 -6 -6 -6 -6 -5 -5 -5 -6 -6 -6 -6 -6
-6 -6 -6 -6 -7 -7 -7 -8 -7 -6 -7 -8 -8 -8 -8 -8 -7 -7 -6 -5 -5 -4 -5 -5 -4 -5 -5 -5 -4 -4 -5 -5 -5 -5 -6 -6 -6 -6 -6 -6 -6 -6 -6 -6 -6 -5 -5 -6 -6
-6 -6 -6 -8 -8 -8 -8 -8 -8 -6 -6 -8 -9 -8 -8 -8 -8 -8 -7 -6 -6 -5 -5 -6 -6 -6 -6 -5 -5 -4 -5 -5 -5 -5 -6 -6 -6 -6 -6 -6 -6 -6 -6 -6 -6 -6 -5 -6 -7
-6 -6 -8 -9 -9 -9 -9 -8 -8 -7 -6 -8 -9 -9 -9 -9 -9 -8 -8 -6 -6 -6 -5 -5 -6 -6 -5 -5 -5 -5 -5 -6 -5 -6 -6 -6 -6 -6 -6 -6 -6 -6 -6 -6 -6 -6 -6 -6 -7
-7 -8 -9 -11 -11 -11 -11 -10 -10 -8 -8 -8 -10 -10 -9 -9 -10 -8 -8 -8 -7 -6 -5 -6 -6 -6 -6 -6 -6 -6 -6 -5 -6 -6 -6 -6 -6 -6 -6 -6 -6 -6 -6 -6 -6 -6 -6 -6 -7
-8 -9 -11 -12 -13 -13 -12 -11 -11 -10 -9 -9 -10 -11 -9 -10 -10 -9 -8 -8 -7 -6 -6 -7 -6 -7 -6 -6 -6 -6 -6 -6 -6 -6 -6 -6 -6 -6 -6 -6 -6 -6 -6 -6 -6 -6 -6 -6 -6
-10 -11 -13 -13 -13 -13 -13 -13 -13 -11 -10 -11 -11 -11 -10 -10 -10 -10 -9 -7 -7 -6 -6 -7 -7 -7 -7 -7 -7 -7 -7 -7 -6 -6 -6 -6 -6 -6 -6 -6 -6 -7 -7 -6 -6 -6 -6 -6 -6
-12 -13 -14 -14 -14 -14 -13 -13 -13 -13 -12 -11 -11 -11 -11 -10 -10 -10 -9 -8 -7 -7 -6 -7 -8 -8 -8 -8 -8 -8 -7 -7 -6 -6 -6 -6 -6 -6 -6 -6 -6 -7 -6 -6 -6 -6 -6 -6 -6
-14 -14 -14 -14 -14 -14 -14 -13 -14 -14 -13 -13 -12 -12 -11 -12 -11 -10 -10 -9 -8 -7 -7 -7 -8 -8 -8 -8 -8 -8 -8 -7 -7 -7 -6 -6 -6 -6 -6 -6 -7 -7 -6 -6 -6 -6 -6 -6 -6
-14 -14 -15 -15 -15 -14 -14 -13 -14 -14 -14 -14 -13 -12 -12 -11 -11 -10 -9 -9 -8 -8 -8 -8 -8 -8 -9 -9 -8 -8 -8 -8 -7 -7 -7 -7 -7 -6 -7 -7 -7 -7 -6 -6 -7 -6 -6 -6 -6
-14 -14 -14 -14 -15 -15 -14 -13 -14 -14 -14 -14 -14 -13 -13 -12 -11 -11 -9 -9 -9 -8 -8 -9 -9 -8 -9 -9 -9 -8 -8 -8 -8 -7 -7 -7 -6 -6 -7 -7 -7 -6 -7 -7 -7 -7 -6 -6 -6
-14 -14 -15 -15 -16 -15 -15 -14 -14 -14 -14 -14 -14 -14 -13 -13 -12 -11 -10 -9 -9 -8 -8 -9 -9 -8 -8 -9 -9 -8 -8 -8 -8 -8 -7 -7 -7 -7 -7 -7 -7 -7 -7 -7 -7 -6 -6 -6 -7
-14 -14 -15 -16 -17 -16 -16 -15 -14 -14 -14 -14 -14 -14 -14 -13 -13 -12 -11 -10 -9 -9 -8 -9 -9 -9 -8 -8 -8 -8 -8 -8 -8 -8 -7 -7 -7 -7 -7 -7 -7 -7 -7 -7 -7 -7 -7 -7 -7
-15 -15 -16 -16 -18 -18 -17 -16 -15 -15 -15 -15 -14 -14 -14 -14 -13 -13 -12 -11 -10 -10 -10 -10 -9 -9 -8 -8 -8 -9 -8 -8 -8 -8 -8 -8 -7 -7 -7 -7 -8 -8 -8 -7 -7 -6 -7 -7 -7
-15 -15 -16 -17 -18 -18 -17 -16 -15 -16 -15 -15 -15 -14 -14 -14 -14 -13 -11 -12 -11 -11 -10 -10 -10 -9 -9 -8 -8 -9 -8 -8 -8 -8 -8 -8 -7 -8 -8 -8 -8 -7 -8 -8 -7 -6 -7 -7 -7
-15 -16 -16 -17 -18 -18 -18 -16 -16 -16 -16 -16 -16 -15 -15 -15 -14 -14 -12 -11 -11 -11 -10 -10 -10 -9 -9 -9 -8 -9 -9 -8 -8 -8 -8 -8 -8 -8 -8 -8 -8 -8 -8 -7 -7 -7 -7 -7 -7
-16 -16 -17 -17 -18 -18 -18 -19 -15 -17 -17 -16 -16 -15 -15 -15 -15 -14 -13 -11 -12 -11 -11 -9 -9 -9 -10 -10 -9 -9 -9 -8 -8 -8 -8 -8 -8 -8 -9 -9 -8 -8 -8 -7 -7 -7 -7 -7 -8
-16 -17 -17 -18 -18 -19 -19 -20 -16 -17 -18 -17 -17 -17 -15 -15 -15 -15 -14 -13 -12 -11 -11 -11 -9 -9 -10 -9 -10 -9 -9 -8 -8 -8 -8 -8 -9 -8 -9 -8 -8 -8 -7 -7 -7 -7 -7 -8 -8
-16 -18 -18 -18 -19 -19 -20 -19 -18 -19 -19 -19 -19 -19 -17 -16 -16 -15 -14 -14 -13 -12 -11 -10 -11 -9 -9 -10 -10 -9 -9 -9 -8 -8 -8 -10 -9 -9 -9 -8 -8 -8 -7 -7 -8 -8 -8 -8 -8
-18 -18 -19 -20 -20 -19 -20 -19 -19 -20 -19 -19 -19 -19 -19 -17 -16 -15 -15 -14 -13 -12 -12 -9 -12 -10 -11 -11 -11 -9 -10 -9 -9 -8 -8 -8 -9 -9 -8 -8 -8 -8 -7 -7 -8 -8 -8 -8 -8
-18 -18 -19 -20 -20 -20 -19 -19 -19 -20 -20 -19 -19 -18 -19 -17 -16 -15 -15 -14 -14 -13 -13 -12 -10 -11 -12 -11 -10 -10 -10 -10 -9 -9 -8 -9 -9 -9 -9 -8 -8 -8 -8 -8 -8 -8 -8 -8 -8
-17 -18 -19 -19 -20 -20 -19 -18 -19 -19 -20 -19 -19 -18 -18 -18 -16 -15 -15 -14 -14 -14 -13 -12 -12 -12 -11 -11 -9 -9 -9 -10 -11 -10 -9 -8 -10 -9 -9 -8 -8 -8 -8 -8 -8 -8 -8 -8 -8
-18 -17 -18 -19 -19 -19 -18 -18 -18 -19 -18 -18 -18 -18 -17 -17 -16 -16 -15 -14 -15 -14 -13 -12 -12 -12 -11 -9 -9 -8 -8 -8 -10 -10 -9 -9 -9 -9 -9 -8 -8 -8 -8 -8 -8 -8 -9 -8 -8
-18 -18 -18 -18 -18 -19 -18 -18 -18 -18 -18 -18 -17 -17 -17 -17 -17 -16 -15 -14 -16 -14 -13 -13 -12 -12 -10 -9 -8 -7 -7 -8 -10 -10 -9 -9 -10 -9 -9 -8 -8 -8 -8 -8 -8 -8 -8 -8 -8
Height
5848 5850 5852 5854 5857 5860 5865 5870 5872 5871 5867 5868 5867 5868 5871 5876 5878 5884 5885 5889 5891 5893 5894 5898 5900 5902 5903 5906 5907 5908 5906 5904 5905 5907 5910 5911 5912 5912 5913 5913 5912 5911 5910 5910 5909 5908 5907 5905 5904
5843 5844 5847 5848 5850 5856 5862 5865 5865 5864 5862 5862 5862 5864 5866 5873 5876 5879 5881 5884 5885 5888 5890 5895 5899 5901 5902 5905 5905 5907 5906 5905 5905 5906 5908 5911 5912 5912 5912 5913 5912 5911 5910 5909 5909 5907 5906 5905 5903
5839 5839 5841 5842 5845 5852 5855 5858 5858 5857 5857 5855 5855 5859 5863 5869 5872 5875 5878 5879 5881 5877 5883 5893 5896 5901 5902 5903 5905 5905 5905 5904 5905 5906 5907 5910 5911 5912 5912 5912 5912 5911 5910 5910 5909 5907 5906 5904 5901
5834 5834 5834 5835 5840 5846 5848 5851 5850 5850 5848 5848 5849 5856 5861 5863 5870 5873 5877 5878 5882 5884 5889 5889 5891 5897 5901 5902 5903 5903 5905 5903 5904 5905 5907 5909 5910 5910 5910 5911 5911 5910 5910 5909 5908 5906 5905 5902 5899
5827 5827 5827 5829 5833 5839 5840 5842 5843 5842 5841 5841 5846 5849 5858 5862 5870 5871 5875 5876 5882 5886 5891 5890 5892 5895 5898 5901 5900 5901 5903 5903 5904 5905 5906 5908 5908 5909 5909 5909 5910 5909 5908 5908 5907 5905 5903 5900 5897
5820 5820 5819 5822 5826 5829 5831 5834 5835 5833 5835 5835 5838 5846 5855 5856 5867 5869 5874 5876 5877 5879 5883 5886 5890 5893 5896 5897 5897 5897 5901 5901 5902 5903 5905 5905 5906 5907 5907 5907 5908 5908 5907 5907 5906 5904 5901 5899 5896
5811 5811 5810 5812 5815 5821 5822 5823 5825 5824 5826 5828 5829 5836 5846 5849 5857 5865 5872 5873 5873 5875 5877 5882 5888 5891 5893 5895 5894 5894 5897 5898 5900 5901 5903 5903 5904 5905 5906 5907 5907 5907 5907 5906 5904 5903 5900 5898 5895
5801 5800 5799 5799 5802 5807 5810 5807 5814 5814 5815 5820 5821 5826 5838 5843 5849 5856 5867 5869 5870 5873 5876 5879 5882 5884 5889 5891 5892 5893 5895 5896 5897 5897 5899 5900 5902 5904 5905 5906 5906 5905 5905 5904 5902 5901 5898 5897 5893
5790 5789 5787 5785 5786 5788 5796 5792 5799 5802 5806 5807 5808 5819 5829 5835 5843 5852 5858 5866 5872 5873 5874 5876 5879 5881 5882 5884 5886 5889 5893 5894 5895 5895 5896 5897 5899 5902 5903 5903 5903 5905 5903 5901 5900 5899 5896 5895 5891
5778 5776 5773 5772 5772 5774 5782 5780 5788 5792 5794 5798 5800 5809 5818 5824 5831 5839 5851 5860 5865 5869 5872 5873 5874 5878 5878 5879 5882 5885 5888 5891 5892 5892 5893 5895 5896 5900 5900 5900 5900 5902 5900 5899 5898 5896 5894 5892 5888
5767 5763 5760 5759 5759 5762 5768 5767 5774 5781 5788 5791 5792 5797 5807 5814 5819 5828 5837 5843 5853 5859 5863 5866 5868 5872 5874 5875 5878 5881 5884 5887 5889 5889 5890 5892 5894 5896 5897 5898 5898 5899 5898 5897 5895 5894 5892 5889 5886
5755 5750 5749 5750 5749 5753 5755 5758 5761 5766 5774 5778 5782 5786 5799 5803 5810 5819 5828 5835 5841 5846 5854 5858 5860 5863 5869 5871 5874 5877 5880 5884 5884 5886 5888 5889 5890 5893 5895 5896 5896 5896 5895 5895 5893 5892 5889 5886 5883
5743 5741 5740 5741 5741 5742 5744 5748 5751 5754 5758 5765 5770 5774 5786 5794 5800 5809 5820 5826 5834 5839 5843 5848 5853 5856 5862 5866 5868 5871 5876 5880 5882 5882 5886 5887 5889 5891 5893 5894 5894 5893 5892 5892 5890 5889 5886 5883 5880
5733 5732 5733 5734 5733 5734 5735 5743 5741 5742 5740 5749 5757 5762 5772 5782 5790 5800 5810 5816 5824 5832 5836 5839 5845 5850 5855 5860 5863 5865 5870 5874 5878 5880 5882 5885 5887 5889 5892 5893 5892 5891 5891 5890 5888 5886 5883 5880 5877
5725 5726 5725 5725 5725 5725 5728 5736 5734 5735 5735 5738 5746 5753 5759 5770 5778 5790 5800 5806 5815 5820 5824 5829 5833 5839 5848 5853 5857 5861 5864 5869 5873 5876 5879 5882 5884 5886 5889 5889 5889 5888 5888 5887 5885 5883 5881 5877 5874
5719 5719 5719 5719 5717 5717 5721 5733 5727 5725 5727 5728 5734 5741 5748 5761 5770 5779 5790 5797 5803 5806 5813 5819 5825 5830 5837 5846 5851 5855 5861 5865 5868 5871 5875 5878 5881 5883 5885 5886 5886 5886 5887 5885 5884 5882 5879 5875 5872
5713 5712 5711 5712 5707 5707 5710 5722 5719 5717 5720 5724 5726 5729 5740 5748 5761 5772 5780 5788 5795 5800 5803 5811 5818 5823 5829 5837 5844 5848 5854 5860 5864 5866 5871 5875 5878 5880 5881 5882 5882 5883 5883 5882 5881 5880 5875 5871 5867
5706 5704 5702 5701 5700 5696 5699 5708 5709 5712 5715 5717 5719 5720 5727 5736 5750 5761 5771 5781 5788 5792 5798 5804 5811 5816 5821 5828 5836 5841 5848 5853 5859 5863 5867 5872 5875 5876 5878 5879 5880 5880 5880 5878 5877 5876 5872 5869 5865
5698 5695 5692 5692 5687 5681 5687 5693 5700 5702 5706 5706 5707 5707 5714 5724 5737 5748 5760 5771 5779 5785 5792 5800 5805 5810 5814 5823 5832 5840 5844 5847 5854 5859 5864 5868 5870 5873 5875 5875 5877 5876 5875 5875 5874 5873 5869 5866 5862
5688 5685 5681 5676 5674 5667 5675 5679 5689 5691 5694 5697 5697 5698 5703 5712 5723 5734 5748 5759 5770 5778 5785 5793 5801 5801 5809 5818 5825 5832 5839 5844 5848 5853 5859 5864 5866 5869 5870 5872 5873 5873 5872 5871 5871 5869 5866 5863 5861
5682 5677 5670 5666 5662 5660 5661 5667 5675 5676 5682 5683 5687 5690 5692 5702 5711 5722 5734 5747 5757 5767 5778 5783 5793 5794 5803 5811 5817 5826 5834 5841 5845 5849 5854 5859 5861 5864 5866 5868 5869 5869 5869 5868 5866 5865 5862 5861 5859
5673 5666 5661 5657 5653 5653 5651 5651 5661 5663 5667 5668 5669 5671 5680 5689 5698 5710 5718 5733 5746 5757 5768 5775 5783 5787 5796 5804 5812 5820 5829 5837 5842 5846 5849 5852 5856 5860 5862 5864 5865 5866 5865 5864 5861 5861 5860 5859 5857
5666 5659 5654 5650 5646 5643 5643 5642 5653 5649 5652 5651 5657 5659 5663 5674 5685 5700 5708 5721 5734 5747 5759 5767 5773 5776 5787 5797 5806 5814 5824 5830 5836 5840 5843 5847 5851 5855 5858 5860 5860 5861 5860 5860 5857 5857 5855 5854 5854
5657 5652 5648 5643 5639 5636 5637 5637 5642 5639 5635 5638 5641 5642 5648 5661 5669 5685 5697 5711 5723 5737 5747 5752 5761 5770 5780 5792 5799 5808 5816 5826 5830 5835 5837 5842 5846 5849 5853 5855 5856 5856 5855 5854 5854 5854 5853 5853 5850
5649 5644 5641 5637 5633 5632 5630 5629 5631 5629 5625 5627 5630 5633 5634 5646 5658 5672 5681 5700 5715 5726 5736 5745 5754 5765 5774 5784 5795 5803 5811 5819 5825 5828 5830 5835 5840 5845 5848 5849 5852 5852 5851 5849 5850 5850 5850 5849 5846
5645 5639 5635 5629 5627 5626 5625 5625 5624 5620 5619 5622 5626 5629 5630 5638 5649 5662 5673 5689 5705 5719 5731 5736 5749 5763 5768 5779 5789 5797 5805 5810 5816 5823 5825 5830 5836 5840 5843 5846 5846 5847 5846 5847 5846 5847 5848 5845 5844
5642 5636 5632 5626 5623 5619 5620 5621 5616 5615 5616 5616 5618 5622 5627 5633 5642 5655 5668 5682 5694 5708 5724 5736 5746 5757 5765 5777 5784 5792 5797 5804 5811 5820 5822 5826 5831 5835 5837 5841 5843 5843 5841 5842 5842 5844 5844 5842 5841
5639 5633 5627 5622 5617 5614 5613 5611 5612 5612 5612 5612 5617 5619 5625 5631 5637 5648 5662 5676 5687 5700 5715 5728 5739 5752 5760 5774 5777 5783 5785 5797 5802 5812 5815 5820 5825 5829 5833 5836 5838 5838 5836 5838 5839 5840 5838 5838 5836
5635 5629 5623 5618 5614 5610 5608 5608 5609 5611 5611 5614 5613 5615 5622 5629 5635 5646 5656 5672 5680 5692 5707 5719 5731 5744 5757 5768 5767 5774 5778 5786 5794 5802 5808 5814 5819 5823 5828 5832 5832 5833 5833 5835 5835 5835 5835 5834 5833
5633 5628 5621 5615 5612 5607 5606 5608 5606 5607 5608 5609 5612 5613 5618 5626 5634 5643 5654 5666 5675 5687 5700 5712 5725 5740 5753 5752 5756 5765 5770 5776 5785 5794 5801 5809 5813 5818 5824 5825 5827 5829 5829 5831 5831 5830 5830 5829 5828
Wind_Speed
30 31 31 31 33 31 29 27 22 22 28 30 33 35 33 30 29 27 23 19 16 25 27 22 21 20 23 22 17 13 11 10 7 5 3 2 3 4 5 6 7 8 10 11 12 13 13 15 18
29 32 34 35 36 30 25 24 28 28 30 33 36 39 38 32 30 28 28 25 21 17 34 25 22 19 21 21 18 14 11 10 9 7 4 2 2 4 5 6 6 7 8 10 11 12 13 16 19
33 34 34 36 36 31 30 26 29 31 34 37 40 41 39 35 33 31 28 25 23 20 39 27 21 18 20 19 16 14 12 10 8 7 5 2 1 3 5 6 7 7 8 9 11 12 15 19 21
33 37 39 39 35 33 34 32 34 34 37 41 43 41 39 39 32 29 23 18 10 14 21 25 24 22 19 19 17 14 13 12 11 9 6 3 0 2 4 6 7 7 9 10 11 13 17 21 23
29 33 38 38 38 37 37 37 39 39 41 44 44 45 39 39 31 31 23 10 9 20 25 25 22 22 20 19 15 12 11 10 11 10 7 4 3 3 3 5 7 8 10 11 12 14 18 20 24
32 35 39 39 38 38 43 41 43 47 43 44 45 44 42 40 33 30 23 19 19 29 38 28 24 22 23 21 18 13 11 10 10 10 8 7 5 4 4 5 7 9 11 12 12 14 18 22 26
33 36 40 43 44 43 44 46 48 50 48 46 47 45 44 45 38 33 24 22 21 32 35 23 25 24 23 23 19 17 15 11 9 9 10 9 8 6 5 6 8 10 12 13 13 15 19 24 27
36 39 42 47 48 50 51 51 51 54 52 48 49 48 45 46 42 36 28 14 17 17 24 35 33 27 26 23 20 17 16 14 12 10 11 12 10 8 6 7 10 9 11 13 14 16 20 25 29
40 42 44 44 48 52 53 60 56 59 58 52 52 48 45 45 45 41 40 36 25 20 25 29 31 25 24 22 21 18 16 13 12 11 13 14 13 9 7 9 10 11 11 13 15 18 22 25 30
44 44 43 41 44 49 49 61 60 61 63 57 53 50 46 47 49 45 39 35 29 31 26 25 24 29 25 23 19 17 16 14 14 14 14 15 14 11 9 11 11 11 11 13 16 21 25 27 32
43 43 41 37 40 41 42 51 53 62 62 60 53 51 48 50 51 52 46 39 36 32 34 28 27 28 28 23 21 20 19 17 16 14 13 16 16 12 11 13 12 11 12 13 16 22 25 28 32
42 43 40 32 36 35 38 44 48 56 63 61 57 53 51 52 55 53 51 45 38 39 38 33 31 34 32 27 28 21 17 17 17 17 17 18 17 14 11 14 12 12 14 13 17 22 26 29 32
42 40 35 31 35 35 35 37 38 47 58 59 59 55 53 55 59 53 50 51 48 40 39 39 34 32 32 28 27 26 19 21 21 19 19 17 17 14 13 14 12 14 16 14 18 24 28 31 33
38 35 31 30 31 31 33 32 37 39 54 58 58 59 54 56 58 59 53 54 54 48 46 44 37 33 30 30 30 26 24 23 22 22 21 17 16 13 14 13 14 16 16 17 22 25 28 32 32
34 30 33 34 36 33 30 25 35 38 43 55 58 59 60 54 55 52 52 51 52 52 54 50 44 37 31 31 34 30 26 23 22 21 19 18 17 15 15 14 16 18 16 20 23 26 29 33 30
31 31 30 35 39 41 37 23 31 38 42 42 56 61 60 58 56 56 53 53 56 52 54 51 48 43 36 35 36 32 28 23 24 21 21 20 17 15 16 16 17 16 19 22 25 27 32 30 29
28 32 35 36 39 40 41 30 31 35 36 42 50 61 60 60 59 57 54 59 58 53 56 51 49 47 40 37 39 35 33 29 25 22 20 18 15 16 17 18 16 19 22 23 25 28 29 29 25
26 32 37 38 40 43 42 36 34 39 38 36 41 57 62 61 60 61 63 59 54 55 62 58 54 49 45 39 38 36 35 31 27 24 22 19 19 20 20 19 20 22 23 24 27 29 27 25 20
28 38 42 40 41 47 42 40 37 36 37 46 46 49 54 64 62 62 64 68 60 60 51 60 57 49 45 41 36 34 29 26 25 24 24 24 25 22 23 21 20 24 21 27 29 28 25 20 21
36 39 43 40 38 47 44 42 40 43 42 44 49 55 52 50 66 64 64 70 73 67 60 64 58 49 45 43 39 34 31 26 27 25 27 27 25 25 25 23 26 26 29 29 27 24 21 19 21
35 36 35 35 38 38 40 43 42 47 47 47 50 56 56 51 55 65 70 69 69 73 67 62 62 50 48 47 42 37 31 28 28 26 26 26 26 25 23 25 26 30 24 24 21 21 19 18 20
35 35 35 32 35 33 36 37 34 39 42 46 52 61 60 53 47 59 70 69 70 68 65 66 57 46 49 46 43 38 33 30 28 29 28 28 26 23 23 26 21 16 21 20 19 22 17 17 18
34 33 31 30 32 35 32 33 29 32 37 41 48 63 68 60 52 57 67 69 61 59 66 70 60 53 47 45 44 40 36 33 32 32 30 29 25 23 23 20 18 20 21 19 19 19 17 18 18
31 30 30 30 25 29 25 25 20 30 36 44 49 51 74 71 67 56 62 65 63 58 62 70 56 52 53 39 42 40 38 37 36 35 32 29 26 23 20 21 21 21 18 17 17 16 17 18 18
30 27 27 27 27 25 25 30 27 26 24 33 35 39 56 60 61 60 59 65 60 61 59 66 68 45 43 45 42 41 43 41 41 41 35 31 27 27 25 22 23 22 19 15 15 16 17 17 18
25 29 25 29 30 25 25 23 19 23 23 23 23 24 37 48 56 54 60 62 59 58 51 54 41 35 29 23 36 40 42 50 46 44 40 31 31 29 25 27 24 21 16 16 16 17 17 17 19
28 27 23 26 26 28 21 20 21 12 17 16 23 21 30 39 46 50 60 62 58 57 53 51 49 50 35 31 30 33 32 28 49 45 41 36 29 31 25 27 26 19 18 17 18 18 17 16 20
27 34 28 23 25 19 11 10 11 11 14 18 21 17 22 32 44 47 61 63 59 53 51 55 50 41 37 36 28 34 34 37 55 50 46 38 36 29 26 27 22 21 18 20 19 19 16 17 20
32 39 39 30 22 23 13 7 9 10 17 21 24 25 21 27 38 44 60 66 50 51 55 57 55 45 35 35 30 31 38 27 53 49 44 40 35 28 25 23 22 19 20 21 19 18 16 18 20
29 30 30 36 29 20 19 3 8 12 15 20 26 30 27 25 28 44 57 69 49 54 59 60 56 49 32 19 28 36 43 36 53 49 40 42 30 26 28 26 22 21 21 21 20 16 16 18 21
Wind_Direction
256 255 256 254 253 252 248 245 240 235 241 235 236 245 244 244 251 255 264 255 251 223 222 209 204 210 205 212 207 200 177 165 158 152 136 91 47 26 15 32 37 34 34 32 15 10 3 357 355
258 257 255 254 256 259 255 247 243 234 236 239 236 239 244 243 253 258 262 267 292 271 213 207 204 210 208 212 208 208 194 174 167 162 151 112 35 6 0 3 15 27 24 25 10 5 356 349 347
258 258 257 257 258 258 253 246 242 240 235 240 239 238 242 245 246 253 261 275 292 294 202 200 198 209 212 207 208 203 209 189 180 176 162 154 45 349 344 351 0 7 3 14 5 358 350 346 345
261 260 260 259 261 254 252 245 243 241 236 234 241 241 241 244 245 253 260 276 319 170 201 200 193 204 213 208 200 199 215 202 193 189 182 163 199 322 338 341 344 350 351 2 356 352 349 344 341
264 263 263 263 261 256 252 246 242 241 239 239 235 242 245 245 247 249 252 245 206 180 214 219 208 210 212 213 204 201 216 218 214 204 190 188 212 278 314 325 330 337 340 351 347 348 344 339 340
274 274 270 268 262 255 250 246 244 243 239 239 240 234 241 245 240 243 247 235 188 192 209 206 210 218 223 213 206 202 209 216 225 220 209 210 220 255 287 307 317 326 331 341 337 341 333 335 337
281 279 277 277 269 256 250 243 241 243 242 236 239 234 231 238 236 239 236 224 184 191 201 215 218 224 225 226 217 206 204 206 217 224 226 223 229 242 275 302 309 317 332 332 327 330 331 332 338
286 282 283 277 265 254 246 246 237 239 241 237 237 236 231 230 237 225 203 191 190 187 178 195 209 218 224 230 227 217 212 206 208 212 224 229 232 239 259 286 294 309 322 319 321 321 321 330 336
286 283 284 275 265 255 244 243 238 234 237 235 235 232 232 231 229 229 224 230 234 202 201 200 216 213 205 214 224 225 223 222 220 214 225 232 235 239 249 267 284 305 308 313 312 311 317 327 329
290 289 286 277 266 260 250 245 240 234 233 235 232 229 224 229 222 223 231 231 232 230 221 207 204 218 216 208 204 211 217 217 222 224 228 236 237 240 244 262 282 291 301 301 307 307 315 323 323
292 287 285 272 261 258 250 246 242 238 233 232 233 228 220 224 222 217 224 211 206 223 211 202 202 209 214 204 205 212 217 214 220 226 231 237 238 238 244 260 273 286 289 295 301 305 313 317 321
289 285 280 262 260 254 248 241 241 234 234 233 231 230 220 216 221 217 220 215 213 203 201 200 201 202 206 210 216 214 215 225 222 227 230 231 236 237 248 267 275 280 283 291 297 307 310 315 325
290 288 279 264 257 256 246 240 237 233 229 231 230 229 220 218 217 216 217 224 221 202 208 197 193 192 199 208 206 214 217 221 223 223 232 236 240 237 248 260 270 272 278 290 297 302 310 318 325
288 282 267 263 258 258 255 243 238 229 226 223 225 229 221 217 221 219 215 227 232 219 209 195 192 196 204 208 208 204 213 214 220 225 230 235 239 241 253 259 261 269 275 291 293 301 311 321 325
286 278 266 254 253 257 257 248 242 236 230 224 221 226 224 216 219 218 212 219 212 209 205 197 193 192 205 202 196 198 201 206 214 222 229 231 236 238 245 248 254 262 272 284 294 304 313 318 320
287 278 267 264 264 262 260 248 247 240 233 231 221 220 227 219 214 213 211 210 206 202 202 197 194 191 195 199 200 206 208 207 213 220 229 229 233 236 241 245 252 270 278 289 302 305 312 318 324
294 291 279 271 268 263 258 243 236 240 237 234 229 221 219 224 216 211 208 206 204 209 204 198 194 192 194 202 204 210 215 218 220 223 230 228 223 233 236 238 259 279 276 289 298 301 317 325 322
290 295 289 278 269 264 254 244 243 235 236 238 235 230 223 220 218 214 209 205 205 213 215 198 197 195 194 200 209 212 211 215 219 228 228 222 228 230 229 247 257 263 275 288 293 307 321 317 323
290 289 288 281 272 265 258 249 238 239 236 238 238 237 233 221 221 216 212 210 214 217 213 206 201 199 195 199 206 213 220 215 219 228 231 225 232 233 232 239 255 261 268 293 295 310 316 314 329
288 298 300 284 272 266 261 250 239 242 242 241 238 239 238 234 217 221 214 209 214 218 230 205 204 198 199 203 209 212 218 218 221 223 228 230 234 232 234 241 246 264 288 290 292 312 307 318 322
304 308 298 284 271 271 268 257 249 245 246 245 241 237 238 234 231 219 218 215 218 224 227 202 201 196 201 206 210 213 216 219 217 218 225 230 231 231 237 243 255 269 274 284 296 306 297 311 318
314 305 299 288 279 273 265 263 244 242 239 242 239 234 237 232 228 223 222 217 218 224 224 230 226 202 203 205 210 213 211 208 221 220 221 224 226 230 239 250 254 262 271 281 296 290 293 312 319
312 308 301 291 290 274 271 268 228 247 243 250 250 240 233 231 230 224 223 220 221 221 226 226 221 204 199 201 206 211 212 211 218 218 215 219 220 231 239 245 247 263 279 283 287 288 299 309 318
323 312 302 299 296 287 279 275 241 263 272 259 247 242 230 232 234 224 221 220 222 218 218 232 202 212 206 208 205 204 212 214 216 215 213 213 217 222 235 244 254 269 277 278 283 286 297 307 318
329 320 306 303 292 297 278 278 280 276 263 239 239 238 223 218 219 216 212 216 217 218 221 227 231 219 213 222 218 217 215 216 219 211 208 210 216 229 241 252 256 266 269 276 275 281 291 304 316
336 322 311 306 300 291 286 292 285 284 247 247 236 232 229 210 212 205 208 211 212 213 213 212 217 204 195 212 220 223 232 211 210 213 212 212 224 234 243 251 251 257 264 270 269 275 287 303 311
341 332 308 308 300 293 297 295 297 274 247 259 234 227 217 212 211 204 198 208 207 209 215 225 223 227 241 222 213 216 236 277 205 211 211 205 222 234 238 247 252 254 259 267 267 272 284 302 310
333 336 318 309 303 304 297 295 279 261 249 260 241 235 209 217 211 205 194 206 208 204 210 219 223 224 221 225 217 227 245 254 195 206 214 210 226 233 237 241 246 250 259 262 263 267 279 297 309
327 336 326 304 306 303 312 266 257 252 250 251 245 242 233 212 217 207 196 207 193 198 206 217 221 223 216 221 215 226 230 251 194 207 214 206 218 222 228 238 245 250 254 259 259 266 281 293 306
327 341 334 319 306 302 306 207 250 273 246 246 240 244 241 229 218 211 198 205 200 202 208 216 218 222 207 208 226 226 217 211 196 207 213 211 212 217 229 243 244 246 256 256 256 265 279 289 299